Regional Weather Roundup
Issued by NWS Lake Charles, LA

Home | Current Version | Previous Version | Text Only | Print | Product List | Glossary On
Versions: 1 2 3 4 5 6 7 8 9 10 11 12 13 14 15 16 17 18 19 20 21 22 23 24 25 26 27 28 29 30 31 32 33 34 35 36 37 38 39 40 41 42 43 44 45 46 47 48 49 50
674
ASUS44 KLCH 091010
RWRLCH
REGIONAL WEATHER ROUNDUP
NATIONAL WEATHER SERVICE LAKE CHARLES LA
400 AM CST FRI DEC 09 2016

Note: "fair" indicates few or no clouds below 12,000 feet with no
significant weather and/or obstructions to visibility.


ACROSS SOUTHEAST TEXAS

CITY           SKY/WX    TMP DP  RH WIND       PRES   REMARKS
BEAUMONT       CLOUDY    40  29  64 N14G23    30.53F
BEAUMONT CITY  CLOUDY    40  32  71 N12G17    30.55S
ORANGE         CLOUDY    39  27  61 N12       30.56S
JASPER         CLEAR     37  31  77 N5        30.60R
$$

ACROSS CENTRAL LOUISIANA

CITY           SKY/WX    TMP DP  RH WIND       PRES   REMARKS
LEESVILLE      CLEAR     35  24  64 N10       30.56S WCI  27
FULLERTON      FAIR      35  24  64 N6        30.54R
ALEXANDRIA INT CLEAR     34  23  64 N9        30.57S WCI  27
ESLER FIELD    CLEAR     33  24  69 VRB3      30.58R
DERIDDER       CLOUDY    37  26  65 N9        30.58S WCI  30
OAKDALE        SUNNY     36  24  62 N5        30.56R
OPELOUSAS      FAIR      36  25  64 N9G22     30.53F WCI  29
$$

ACROSS SOUTHWEST AND SOUTH CENTRAL LOUISIANA

CITY           SKY/WX    TMP DP  RH WIND       PRES   REMARKS
SULPHUR        MOSUNNY   39  29  65 N9        30.55S
LAKE CHARLES   PTCLDY    39  27  62 NE18      30.53F WCI  30
CHENNAULT INT  CLEAR     37  27  67 NE12      30.55R WCI  30
CAMERON PHI      N/A     41  28  60 NE20G28   30.50F
DEQUINCY       FAIR      35  28  75 CALM      30.56S
JENNINGS       FAIR      37  27  65 N10       30.54S
LAFAYETTE      PTCLDY    39  27  62 N13       30.52R
NEW IBERIA     PTCLDY    39  23  52 N14       30.51S
ABBEVILLE      PTSUNNY   37  27  65 N14       30.51S WCI  29
PATTERSON      CLOUDY   N/A N/A N/A N14G21    30.49R
SALT POINT     NOT AVBL
$$

SELECTED SITES ACROSS THE REGION

CITY           SKY/WX    TMP DP  RH WIND       PRES   REMARKS
HOUSTON BUSH   CLOUDY    38  26  62 N13       30.57F WCI  30
HOUSTON HOBBY  CLOUDY    41  27  57 N17G23    30.56R
GALVESTON      CLOUDY    44  33  65 N23       30.54S
COLLEGE STAT   CLOUDY    34  20  56 N14       30.63R WCI  25
CONROE         CLOUDY    36  23  59 N8        30.59S WCI  30
HUNTSVILLE     CLOUDY    35  21  56 N8        30.60R WCI  29
LUFKIN         CLEAR     30  23  75 NW3       30.60S
SHREVEPORT     CLEAR     31  20  63 N8        30.63S WCI  23
MONROE         CLEAR     29  21  72 N8        30.64S WCI  21
NATCHEZ MS     CLEAR     32  16  51 N9        30.56S WCI  24
BATON ROUGE    PTCLDY    37  22  54 N14G21    30.52R WCI  28
N.O. INTL ARPT CLOUDY    42  33  70 N10G22    30.47F
SLIDELL        CLOUDY    40  29  64 N16       30.48S
$$

MARINE REPORTS

STATION/POSITION TIME  SKY/WX   TEMP    WIND        PRES    VSBY
                                AIR SEA DIR/SP/G
                 (UTC)          (F)     (DEG/KT/KT) (MB)    (MI)
BUOY 30 S HIGH I 0950            46 65   10/ 23/ 27 1032.7F
WVE H/P(F/S)=  6/ 5

SEA RIM ST PARK  1000            41      20/ 17/ 21 1034.3R
PORT ARTHUR      0948               56   30/ 16/ 21 1033.9F
SABINE PASS N    0948            42 58   20/ 19/ 24 1035.0R
TEXAS POINT      NOT AVBL
CALCASIEU PASS   0948            41 54   40/ 16/ 21   N/A
LK CHARLES BEACH 0948            39 55              1034.9R
MARSH ISLAND     0900            44                   N/A
FRESH WATER LOCK 0948            41 56   10/ 12/ 15 1033.1R
AMERADA PASS     0948            42 55   10/ 10/ 16 1031.1S
$$




USA.gov is the U.S. government's official web portal to all federal, state and local government web resources and services.